Fort Indiantown Gap, PA

7:06 PM EDT on June 27, 2017 (GMT -0400)
Muir Army Air Field

Weather History for KMUI - May, 2013

Change the Weather History Date:

Friday, May 10, 2013

  Actual Average Record
Temperature  
Mean Temperature 62 °F -  
Max Temperature 76 °F 68 °F 85 °F (2015)
Min Temperature 48 °F 53 °F 42 °F (2008)
Degree Days  
Heating Degree Days 3    
Growing Degree Days 12 (Base 50)    
Moisture  
Dew Point 57 °F    
Average Humidity 97    
Maximum Humidity 100    
Minimum Humidity 45    
Precipitation  
Precipitation 0.58 in - - ()
Sea Level Pressure  
Sea Level Pressure 29.97 in    
Wind  
Wind Speed 1 mph (WSW)    
Max Wind Speed 18 mph    
Max Gust Speed 31 mph    
Visibility 3 miles    
Events Fog , Rain , Thunderstorm    
Averages and records for this station are not official NWS values.
T = Trace of Precipitation, MM = Missing Value Source: NWS Daily Summary

Daily Weather History Graph

Daily Weather History Graph

Search for Another Location

Airport or City:

Trip Planner

Search our weather history database for the weather conditions in past years. The results will help you decide how hot, cold, wet, or windy it might be!

Date:

Astronomy

May. 10, 2013 Rise Set
Actual Time 5:54 AM EDT 8:11 PM EDT
Civil Twilight 5:24 AM EDT 8:41 PM EDT
Nautical Twilight 4:46 AM EDT 9:19 PM EDT
Astronomical Twilight 4:05 AM EDT 10:00 PM EDT
Moon 6:17 AM EDT (5/10) 8:58 PM EDT (5/10)
Length of Visible Light 15h 17m
Length of Day
14h 16m
New Moon, 0% of the Moon is Illuminated
May 10
New Moon
May 18
First Quarter
May 25
Full
May 31
Last Quarter
Jun 8
New

Hourly Weather History & Observations

Time (EDT) Temp. Dew Point Humidity Pressure Visibility Wind Dir Wind Speed Gust Speed Precip Events Conditions
12:30 AM 53.6 °F 53.6 °F 100% 29.98 in 0.8 mi Calm Calm - N/A   Clear
12:34 AM 53.6 °F 53.6 °F 100% 29.98 in 1.0 mi Calm Calm - N/A   Clear
12:36 AM 53.6 °F 53.6 °F 100% 29.98 in 1.2 mi Calm Calm - N/A   Clear
12:38 AM 53.6 °F 53.6 °F 100% 29.98 in 1.2 mi Calm Calm - N/A   Clear
12:44 AM 53.6 °F 53.6 °F 100% 29.99 in 1.0 mi Calm Calm - N/A   Clear
12:48 AM 53.6 °F 53.6 °F 100% 29.99 in 1.5 mi Calm Calm - N/A   Clear
12:50 AM 53.6 °F 53.6 °F 100% 29.99 in 2.5 mi Calm Calm - N/A   Clear
12:56 AM 53.6 °F 53.6 °F 100% 29.98 in 2.0 mi Calm Calm - N/A   Clear
12:58 AM 53.4 °F 53.4 °F 100% 29.99 in 1.8 mi Calm Calm - N/A   Clear
1:00 AM 51.8 °F 51.8 °F 100% 29.98 in 1.2 mi Calm Calm - N/A   Clear
1:02 AM 51.8 °F 51.8 °F 100% 29.98 in 1.0 mi Calm Calm - N/A   Clear
1:12 AM 51.8 °F 51.8 °F 100% 29.98 in 1.2 mi Calm Calm - N/A   Clear
1:14 AM 51.8 °F 51.8 °F 100% 29.98 in 1.8 mi Calm Calm - N/A   Clear
1:16 AM 51.8 °F 51.8 °F 100% 29.98 in 2.0 mi Calm Calm - N/A   Clear
1:18 AM 51.8 °F 51.8 °F 100% 29.98 in 1.5 mi Calm Calm - N/A   Clear
1:20 AM 51.8 °F 51.8 °F 100% 29.98 in 1.0 mi Calm Calm - N/A   Clear
1:22 AM 51.8 °F 51.8 °F 100% 29.98 in 0.8 mi Calm Calm - N/A   Clear
1:24 AM 51.8 °F 51.8 °F 100% 29.98 in 0.5 mi Calm Calm - N/A Fog Fog
1:29 AM 51.8 °F 51.8 °F 100% 29.98 in 0.5 mi Calm Calm - N/A Fog Fog
1:37 AM 53.6 °F 53.6 °F 100% 29.98 in 0.2 mi Calm Calm - N/A Fog Fog
1:39 AM 53.6 °F 53.6 °F 100% 29.98 in 0.2 mi Calm Calm - N/A Fog Fog
1:58 AM 51.3 °F 51.3 °F 100% 30.00 in 0.2 mi Calm Calm - N/A Fog Fog
2:04 AM 51.8 °F 51.8 °F 100% 29.99 in 0.5 mi Calm Calm - N/A Fog Fog
2:24 AM 51.8 °F 51.8 °F 100% 29.99 in 0.8 mi Calm Calm - N/A   Clear
2:36 AM 51.8 °F 51.8 °F 100% 29.99 in 1.0 mi Calm Calm - N/A   Clear
2:46 AM 51.8 °F 51.8 °F 100% 29.99 in 0.8 mi Calm Calm - N/A   Clear
2:50 AM 50.0 °F 50.0 °F 100% 29.99 in 1.0 mi Calm Calm - N/A   Clear
2:58 AM 50.7 °F 50.7 °F 100% 30.01 in 1.0 mi Calm Calm - N/A   Clear
3:04 AM 50.0 °F 50.0 °F 100% 30.00 in 0.8 mi Calm Calm - N/A   Clear
3:22 AM 50.0 °F 50.0 °F 100% 30.00 in 0.5 mi Calm Calm - N/A Fog Fog
3:58 AM 50.5 °F 50.5 °F 100% 30.01 in 0.5 mi Calm Calm - N/A Fog Fog
4:24 AM 48.2 °F 48.2 °F 100% 29.99 in 0.8 mi Calm Calm - N/A   Clear
4:30 AM 50.0 °F 50.0 °F 100% 29.99 in 0.8 mi Calm Calm - N/A   Clear
4:32 AM 50.0 °F 50.0 °F 100% 29.99 in 0.5 mi Calm Calm - N/A Fog Fog
4:34 AM 50.0 °F 50.0 °F 100% 29.99 in 0.8 mi Calm Calm - N/A   Clear
4:56 AM 50.0 °F 50.0 °F 100% 30.00 in 1.0 mi Calm Calm - N/A   Clear
4:58 AM 50.2 °F 50.2 °F 100% 30.01 in 1.2 mi Calm Calm - N/A   Clear
5:00 AM 50.0 °F 50.0 °F 100% 30.00 in 1.8 mi Calm Calm - N/A   Clear
5:02 AM 50.0 °F 50.0 °F 100% 30.00 in 2.5 mi Calm Calm - N/A   Clear
5:04 AM 50.0 °F 50.0 °F 100% 30.00 in 3.0 mi Calm Calm - N/A   Clear
5:16 AM 50.0 °F 50.0 °F 100% 30.00 in 2.0 mi Calm Calm - N/A   Clear
5:18 AM 50.0 °F 50.0 °F 100% 30.00 in 1.5 mi Calm Calm - N/A   Clear
5:22 AM 48.2 °F 48.2 °F 100% 30.00 in 1.2 mi Calm Calm - N/A   Clear
5:24 AM 48.2 °F 48.2 °F 100% 30.00 in 1.0 mi Calm Calm - N/A   Clear
5:28 AM 48.2 °F 48.2 °F 100% 30.00 in 0.8 mi Calm Calm - N/A   Clear
5:32 AM 48.2 °F 48.2 °F 100% 30.00 in 0.5 mi Calm Calm - N/A Fog Fog
5:48 AM 48.2 °F 48.2 °F 100% 30.00 in 0.2 mi Calm Calm - N/A Fog Fog
5:58 AM 48.9 °F 48.9 °F 100% 30.01 in 0.2 mi Calm Calm - N/A Fog Fog
6:09 AM 50.0 °F 50.0 °F 100% 30.01 in 0.2 mi Calm Calm - N/A Fog Fog
6:15 AM 48.2 °F 48.2 °F 100% 30.00 in 0.5 mi Calm Calm - N/A Fog Fog
6:23 AM 48.2 °F 48.2 °F 100% 30.01 in 0.8 mi Calm Calm - N/A   Mist
6:25 AM 48.2 °F 48.2 °F 100% 30.01 in 1.0 mi Calm Calm - N/A   Mist
6:27 AM 48.2 °F 48.2 °F 100% 30.01 in 1.2 mi Calm Calm - N/A   Partly Cloudy
6:29 AM 48.2 °F 48.2 °F 100% 30.00 in 0.8 mi Calm Calm - N/A   Mist
6:31 AM 50.0 °F 50.0 °F 100% 30.00 in 0.5 mi Calm Calm - N/A Fog Fog
6:39 AM 50.0 °F 50.0 °F 100% 30.01 in 0.8 mi Calm Calm - N/A   Clear
6:41 AM 50.0 °F 50.0 °F 100% 30.01 in 2.0 mi Calm Calm - N/A   Clear
6:43 AM 50.0 °F 50.0 °F 100% 30.01 in 6.0 mi Calm Calm - N/A   Clear
6:58 AM 51.1 °F 51.1 °F 100% 30.03 in 10.0 mi Calm Calm - N/A   Clear
7:41 AM 53.6 °F 53.6 °F 100% 30.02 in 1.2 mi Calm Calm - N/A   Partly Cloudy
7:43 AM 53.6 °F 53.6 °F 100% 30.02 in 0.8 mi Calm Calm - N/A   Mist
7:45 AM 53.6 °F 53.6 °F 100% 30.02 in 0.5 mi Calm Calm - N/A Fog Fog
7:49 AM 53.6 °F 53.6 °F 100% 30.02 in 0.2 mi Calm Calm - N/A Fog Fog
7:58 AM 55.0 °F 55.0 °F 100% 30.03 in 0.2 mi Calm Calm - N/A Fog Fog
8:00 AM 55.4 °F 55.4 °F 100% 30.02 in 0.5 mi Variable 1.2 mph - N/A Fog Fog
8:04 AM 55.4 °F 55.4 °F 100% 30.01 in 0.8 mi Calm Calm - N/A   Mist
8:06 AM 55.4 °F 55.4 °F 100% 30.01 in 1.0 mi Calm Calm - N/A   Mist
8:08 AM 55.4 °F 55.4 °F 100% 30.01 in 1.2 mi Calm Calm - N/A   Mostly Cloudy
8:10 AM 55.4 °F 55.4 °F 100% 30.01 in 1.2 mi Calm Calm - N/A   Mostly Cloudy
8:12 AM 57.2 °F 57.2 °F 100% 30.01 in 1.0 mi NNE 1.2 mph - N/A   Mist
8:18 AM 57.2 °F 57.2 °F 100% 30.01 in 1.2 mi ENE 1.2 mph - N/A   Mostly Cloudy
8:20 AM 57.2 °F 57.2 °F 100% 30.01 in 1.5 mi ENE 1.2 mph - N/A   Scattered Clouds
8:22 AM 57.2 °F 57.2 °F 100% 30.01 in 2.5 mi East 1.2 mph - N/A   Scattered Clouds
8:24 AM 57.2 °F 57.2 °F 100% 30.01 in 4.0 mi Calm Calm - N/A   Scattered Clouds
8:58 AM 60.1 °F 60.1 °F 100% 30.03 in 10.0 mi East 1.2 mph - N/A   Clear
9:58 AM 64.6 °F 64.6 °F 100% 30.02 in 10.0 mi Calm Calm - N/A   Clear
10:58 AM 69.4 °F 61.2 °F 75% 30.02 in 10.0 mi Variable 5.8 mph - N/A   Partly Cloudy
11:58 AM 72.5 °F 59.0 °F 62% 30.01 in 10.0 mi SW 3.5 mph - N/A   Scattered Clouds
12:58 PM 74.5 °F 55.2 °F 51% 29.99 in 10.0 mi South 5.8 mph - N/A   Mostly Cloudy
1:58 PM 76.3 °F 53.2 °F 45% 29.97 in 10.0 mi South 3.5 mph - N/A   Mostly Cloudy
2:58 PM 76.5 °F 55.6 °F 48% 29.97 in 10.0 mi WNW 2.3 mph - N/A   Mostly Cloudy
3:38 PM 75.2 °F 57.2 °F 53% 29.94 in 8.0 mi South 6.9 mph - N/A Rain Light Rain
3:58 PM 69.1 °F 68.5 °F 98% 29.94 in 7.0 mi Calm Calm - 0.04 in Rain Light Rain
4:01 PM 69.8 °F 66.2 °F 88% 29.93 in 10.0 mi Calm Calm - N/A   Mostly Cloudy
4:58 PM 71.4 °F 66.0 °F 83% 29.92 in 10.0 mi Calm Calm - 0.00 in   Partly Cloudy
5:58 PM 72.3 °F 62.8 °F 72% 29.91 in 10.0 mi Calm Calm - N/A   Clear
6:58 PM 70.7 °F 64.8 °F 81% 29.89 in 10.0 mi Calm Calm - N/A   Partly Cloudy
6:59 PM 69.8 °F 64.4 °F 83% 29.88 in 10.0 mi Calm Calm - N/A   Light Drizzle
7:27 PM 68.0 °F 66.2 °F 94% 29.93 in 1.8 mi West 17.3 mph 31.1 mph N/A Rain , Thunderstorm Heavy Rain
7:29 PM 66.2 °F 66.2 °F 100% 29.92 in 1.2 mi West 16.1 mph 31.1 mph N/A Rain , Thunderstorm Heavy Rain
7:30 PM 66.2 °F 66.2 °F 100% 29.92 in 1.0 mi West 18.4 mph 31.1 mph N/A Rain , Thunderstorm Heavy Thunderstorms and Rain
7:32 PM 66.2 °F 64.4 °F 94% 29.92 in 0.8 mi West 13.8 mph 31.1 mph N/A Rain , Thunderstorm Heavy Thunderstorms and Rain
7:34 PM 64.4 °F 64.4 °F 100% 29.93 in 1.0 mi West 12.7 mph 31.1 mph N/A Rain , Thunderstorm Heavy Thunderstorms and Rain
7:36 PM 64.4 °F 64.4 °F 100% 29.93 in 1.2 mi West 11.5 mph 24.2 mph N/A Rain , Thunderstorm Heavy Thunderstorms and Rain
7:38 PM 64.4 °F 64.4 °F 100% 29.93 in 1.8 mi WSW 11.5 mph 24.2 mph N/A Rain , Thunderstorm Heavy Thunderstorms and Rain
7:40 PM 64.4 °F 64.4 °F 100% 29.93 in 2.5 mi SW 9.2 mph 24.2 mph N/A Rain , Thunderstorm Thunderstorms and Rain
7:52 PM 64.4 °F 64.4 °F 100% 29.93 in 3.0 mi SW 9.2 mph - N/A Rain , Thunderstorm Light Thunderstorms and Rain
7:54 PM 64.4 °F 64.4 °F 100% 29.92 in 5.0 mi SSW 4.6 mph - N/A Rain , Thunderstorm Light Rain
7:58 PM 64.6 °F 64.6 °F 100% 29.93 in 6.0 mi Variable 5.8 mph - 0.36 in Rain , Thunderstorm Light Rain
8:13 PM 64.4 °F 64.4 °F 100% 29.91 in 10.0 mi Variable 2.3 mph - N/A   Scattered Clouds
8:29 PM 64.4 °F 64.4 °F 100% 29.92 in 10.0 mi Calm Calm - N/A Rain Light Rain
8:58 PM 63.1 °F 63.1 °F 100% 29.96 in 9.0 mi Calm Calm - 0.01 in Rain Light Rain
9:52 PM 62.6 °F 62.6 °F 100% 29.95 in 2.5 mi Calm Calm - N/A Rain Rain
9:54 PM 62.6 °F 62.6 °F 100% 29.95 in 1.8 mi Calm Calm - N/A Rain Rain
9:58 PM 62.6 °F 62.6 °F 100% 29.96 in 1.8 mi Calm Calm - 0.12 in Rain Light Rain
9:59 PM 62.6 °F 62.6 °F 100% 29.95 in 1.8 mi Calm Calm - N/A Rain Light Rain
10:03 PM 62.6 °F 62.6 °F 100% 29.95 in 2.5 mi NNE 1.2 mph - N/A Rain Light Rain
10:05 PM 62.6 °F 62.6 °F 100% 29.95 in 3.0 mi Calm Calm - N/A Rain Light Rain
10:07 PM 62.6 °F 62.6 °F 100% 29.95 in 3.0 mi Calm Calm - N/A Rain Light Rain
10:09 PM 62.6 °F 62.6 °F 100% 29.95 in 2.0 mi Calm Calm - N/A Rain Light Rain
10:11 PM 62.6 °F 62.6 °F 100% 29.95 in 1.8 mi Calm Calm - N/A Rain Rain
10:15 PM 62.6 °F 62.6 °F 100% 29.94 in 1.5 mi Calm Calm - N/A Rain Light Rain
10:17 PM 62.6 °F 62.6 °F 100% 29.94 in 1.8 mi Calm Calm - N/A Rain Light Rain
10:19 PM 62.6 °F 62.6 °F 100% 29.94 in 2.0 mi Calm Calm - N/A Rain Light Rain
10:21 PM 62.6 °F 62.6 °F 100% 29.94 in 3.0 mi Calm Calm - N/A Rain Light Rain
10:41 PM 62.6 °F 62.6 °F 100% 29.93 in 4.0 mi Calm Calm - N/A Rain Light Rain
10:43 PM 62.6 °F 62.6 °F 100% 29.93 in 4.0 mi Calm Calm - N/A Rain Light Rain
10:44 PM 62.6 °F 62.6 °F 100% 29.93 in 4.0 mi Calm Calm - N/A   Overcast
10:51 PM 62.6 °F 62.6 °F 100% 29.93 in 3.0 mi Calm Calm - N/A   Light Drizzle
10:55 PM 62.6 °F 62.6 °F 100% 29.93 in 3.0 mi Calm Calm - N/A   Light Drizzle
10:58 PM 62.1 °F 62.1 °F 100% 29.94 in 3.0 mi Calm Calm - 0.05 in   Light Drizzle
11:03 PM 62.6 °F 62.6 °F 100% 29.93 in 3.0 mi Calm Calm - N/A   Overcast
11:15 PM 62.6 °F 62.6 °F 100% 29.92 in 1.8 mi Calm Calm - N/A   Mostly Cloudy
11:17 PM 62.6 °F 62.6 °F 100% 29.91 in 1.5 mi NNE 1.2 mph - N/A   Mostly Cloudy
11:25 PM 62.6 °F 62.6 °F 100% 29.91 in 1.8 mi Calm Calm - N/A   Overcast
11:27 PM 62.6 °F 62.6 °F 100% 29.91 in 2.0 mi Calm Calm - N/A   Overcast
11:33 PM 62.6 °F 62.6 °F 100% 29.90 in 1.8 mi NE 3.5 mph - N/A   Mostly Cloudy
11:34 PM 62.6 °F 62.6 °F 100% 29.90 in 1.8 mi ENE 4.6 mph - N/A   Light Drizzle
11:44 PM 62.6 °F 62.6 °F 100% 29.90 in 2.0 mi NE 2.3 mph - N/A   Scattered Clouds
11:48 PM 62.6 °F 62.6 °F 100% 29.90 in 1.8 mi Calm Calm - N/A   Scattered Clouds
11:50 PM 62.6 °F 62.6 °F 100% 29.90 in 2.0 mi Variable 1.2 mph - N/A   Scattered Clouds
11:58 PM 61.7 °F 61.7 °F 100% 29.91 in 2.0 mi Calm Calm - 0.00 in   Scattered Clouds